Погода в Пальне-Михайловке

Россия / Липецкая область     52°45′09″N   38°32′49″E
темп.,
°C
ветер,
м/с
пор.,
м/с
влажн.,
%
обл.,
%
осадки,
мм/ч
давл.,
гПа
погр.,
м
28 сентября, вт
вт2800:00+8с5990100 0.1 1021479
03:00+8ссв4891100 0.4 1021459
06:00+8св5990100 0.4 1023562
09:00+7св5887100 0.5 1024783
12:00+7св5783100 0.1 10261019
15:00+7св4782100 0.2 1028748
18:00+6св5878100 0.0 1030701
21:00+6св4879100 0.1 1031670
29 сентября, ср
ср2900:00+6св488186 0.0 1032517
03:00+3ссв37875 0.0 1033167
06:00+2ссв37890 0.0 1034157
09:00+6св47705 0.0 1034364
12:00+9св45525 0.0 10341036
15:00+11ссв45475 0.0 10331230
18:00+8ссв346323 0.0 103367
21:00+6ссв336972 0.0 103460
30 сентября, чт
чт3000:00+5ссв227214 0.0 103420
03:00+4с22775 0.0 103421
06:00+4с33845 0.0 103451
09:00+7ссв35735 0.0 1035290
12:00+11св345976 0.0 10341214
15:00+11ссв335594 0.0 10341283
18:00+9с22675 0.0 103424
21:00+7св227214 0.0 103512
1 октября, пт
пт100:00+6св227540 0.0 103610
03:00+6ссв11789 0.0 103610
06:00+5с12815 0.0 103610
09:00+9с11685 0.0 1036190
12:00+12всв11558 0.0 1036783
15:00+13с005228 0.0 10351004
18:00+11всв016346 0.0 103510
21:00+9в006941 0.0 103510
2 октября, сб
сб200:00+9с116997 0.0 103510
03:00+9с1169100 0.0 103510
06:00+9ссв1170100 0.0 103511
09:00+10св1271100 0.0 103584
12:00+12всв2262100 0.0 1035403
15:00+13всв225986 0.0 1034656
18:00+12св2366100 0.0 103345
21:00+11в2369100 0.0 103480